{"data":{"norad_id":44353,"epoch":"2026-09-19T15:05:53.801088Z","epoch_age_seconds":136982,"freshness":"FRESH","line1":"1 44353U 19036Q   26262.62909492  .00001804  00000+0  12781-3 0  9991","line2":"2 44353  23.9977  52.7500 0001352 114.9609 245.1032 14.96838413395986","mean_motion":14.96838413,"eccentricity":0.0001352,"inclination_deg":23.9977,"raan_deg":52.75,"arg_perigee_deg":114.9609,"mean_anomaly_deg":245.1032,"bstar":0.00012781,"rev_number":39598,"period_min":96.202768949116,"perigee_km":575.73204041096,"apogee_km":577.61262085396,"semimajor_km":6954.8093306325,"source":"CELESTRAK","updated_at":"2026-09-20T09:00:14.525802Z"}}